FW1519 Weather Reports


time (UTC)temp
C
wind
direction
speed
KPH
gust
KPH
rain 1hr
cm
rain 24hr
cm
rain mn
cm
humidity
%
barometer
mb
20260510220830 12 325 14.5 27.4 0.00 0.00 0.00 32 1020.9
20260510220329 12 337 12.9 25.7 0.00 0.00 0.00 36 1020.9
20260510215830 12 340 11.3 25.7 0.00 0.00 0.00 35 1020.9
20260510215332 13 266 12.9 25.7 0.00 0.00 0.00 32 1020.8
20260510213330 13 304 11.3 22.5 0.00 0.00 0.00 34 1020.8
20260510212832 13 333 8.0 22.5 0.00 0.00 0.00 33 1020.8
20260510212330 13 318 6.4 19.3 0.00 0.00 0.00 36 1020.8
20260510211828 12 5 6.4 19.3 0.00 0.00 0.00 37 1020.7
20260510211322 13 348 4.8 19.3 0.00 0.00 0.00 35 1020.8
20260510205805 12 306 16.1 27.4 0.00 0.00 0.00 33 1020.7
20260510205307 12 325 17.7 27.4 0.00 0.00 0.00 33 1020.8
20260510204806 12 293 14.5 24.1 0.00 0.00 0.00 35 1020.8
20260510203806 11 42 12.9 29.0 0.00 0.00 0.00 38 1020.9
20260510203306 11 0 14.5 29.0 0.00 0.00 0.00 41 1020.9
20260510202306 12 14 14.5 38.6 0.00 0.00 0.00 39 1020.8
20260510201805 12 0 9.7 38.6 0.00 0.00 0.00 37 1020.8
20260510201307 12 286 6.4 17.7 0.00 0.00 0.00 36 1020.6
20260510200806 11 351 9.7 19.3 0.00 0.00 0.00 38 1020.9
20260510200303 11 26 9.7 25.7 0.00 0.00 0.00 41 1020.9
20260510195803 11 334 11.3 25.7 0.00 0.00 0.00 39 1020.9
20260510195306 12 25 11.3 24.1 0.00 0.00 0.00 40 1021.0
20260510194802 12 313 9.7 24.1 0.00 0.00 0.00 41 1020.9
20260510194302 11 350 8.0 24.1 0.00 0.00 0.00 40 1020.9
20260510193802 12 30 6.4 17.7 0.00 0.00 0.00 39 1020.8
20260510193303 11 169 9.7 22.5 0.00 0.00 0.00 37 1020.9
20260510192802 11 261 11.3 22.5 0.00 0.00 0.00 39 1020.9
20260510192301 11 281 12.9 20.9 0.00 0.00 0.00 39 1021.0
20260510191301 11 300 12.9 24.1 0.00 0.00 0.00 39 1020.9
20260510190801 11 335 11.3 24.1 0.00 0.00 0.00 40 1020.9
20260510190302 11 345 11.3 24.1 0.00 0.00 0.00 39 1020.9
20260510185802 11 340 12.9 24.1 0.00 0.00 0.00 39 1021.0
20260510185305 11 321 14.5 27.4 0.00 0.00 0.00 41 1021.0
20260510184801 11 342 14.5 27.4 0.00 0.00 0.00 39 1020.9
20260510184304 10 303 16.1 29.0 0.00 0.00 0.00 41 1020.9
20260510183801 11 18 12.9 29.0 0.00 0.00 0.00 40 1020.9
20260510183303 11 298 9.7 27.4 0.00 0.00 0.00 40 1020.9
20260510182801 11 300 9.7 20.9 0.00 0.00 0.00 41 1020.9
20260510182301 10 299 11.3 32.2 0.00 0.00 0.00 41 1020.9
20260510181802 10 349 16.1 32.2 0.00 0.00 0.00 41 1021.0
20260510181301 10 355 14.5 25.7 0.00 0.00 0.00 40 1021.0
20260510180808 10 320 12.9 25.7 0.00 0.00 0.00 41 1020.9
20260510175253 10 343 16.1 29.0 0.00 0.00 0.00 41 1021.0
20260510174753 10 283 17.7 29.0 0.00 0.00 0.00 41 1021.0
20260510174254 10 338 17.7 29.0 0.00 0.00 0.00 43 1021.0
20260510173753 10 310 19.3 32.2 0.00 0.00 0.00 41 1020.9
20260510173254 9 325 20.9 33.8 0.00 0.00 0.00 42 1020.9
20260510172753 9 309 22.5 38.6 0.00 0.00 0.00 43 1020.9
20260510172254 10 351 20.9 38.6 0.00 0.00 0.00 41 1020.8
20260510171753 10 333 19.3 32.2 0.00 0.00 0.00 42 1020.8
20260510171253 10 341 19.3 35.4 0.00 0.00 0.00 42 1020.8
20260510170254 10 355 17.7 33.8 0.00 0.00 0.00 43 1020.8
20260510165754 10 331 17.7 30.6 0.00 0.00 0.00 41 1020.8
20260510165255 10 313 17.7 30.6 0.00 0.00 0.00 44 1020.8
20260510164753 10 322 19.3 29.0 0.00 0.00 0.00 44 1020.7
20260510164254 10 355 19.3 33.8 0.00 0.00 0.00 44 1020.7
20260510163748 9 346 20.9 35.4 0.00 0.00 0.00 46 1020.7
20260510162742 9 355 17.7 33.8 0.00 0.00 0.00 44 1020.7
20260510162241 9 331 17.7 33.8 0.00 0.00 0.00 45 1020.6
20260510161741 9 26 20.9 35.4 0.00 0.00 0.00 45 1020.6
20260510161242 9 346 22.5 35.4 0.00 0.00 0.00 44 1020.6
20260510160741 9 350 17.7 33.8 0.00 0.00 0.00 44 1020.5
20260510160240 10 342 16.1 30.6 0.00 0.00 0.00 45 1020.5
20260510155741 9 332 17.7 30.6 0.00 0.00 0.00 44 1020.5
20260510154741 9 336 14.5 35.4 0.00 0.00 0.00 44 1020.4
20260510153740 9 264 16.1 32.2 0.00 0.00 0.00 45 1020.3
20260510153240 9 336 16.1 32.2 0.00 0.00 0.00 45 1020.3
20260510152742 9 329 16.1 30.6 0.00 0.00 0.00 45 1020.3
20260510152243 9 288 19.3 33.8 0.00 0.00 0.00 45 1020.2
20260510151742 8 325 20.9 33.8 0.00 0.00 0.00 45 1020.2
20260510151240 8 319 19.3 38.6 0.00 0.00 0.00 44 1020.2
20260510150241 8 284 17.7 32.2 0.00 0.00 0.00 46 1020.2
20260510145743 8 309 17.7 33.8 0.00 0.00 0.00 46 1020.1
20260510145242 8 286 20.9 33.8 0.00 0.00 0.00 46 1020.2
20260510144743 8 295 19.3 33.8 0.00 0.00 0.00 45 1020.2
20260510144243 8 310 14.5 33.8 0.00 0.00 0.00 46 1020.1
20260510142740 8 318 16.1 32.2 0.00 0.00 0.00 49 1020.1
20260510142236 8 313 16.1 29.0 0.00 0.00 0.00 49 1020.0
20260510140237 8 355 16.1 33.8 0.00 0.00 0.00 51 1020.1
20260510135231 7 0 12.9 29.0 0.00 0.00 0.00 51 1020.0
20260510134733 7 355 11.3 24.1 0.00 0.00 0.00 52 1020.1
20260510134232 7 308 12.9 24.1 0.00 0.00 0.00 53 1020.0
20260510133732 7 0 11.3 25.7 0.00 0.00 0.00 53 1020.0
20260510132733 7 302 14.5 27.4 0.00 0.00 0.00 54 1019.9
20260510132232 7 348 14.5 27.4 0.00 0.00 0.00 55 1019.9
20260510131731 7 332 14.5 25.7 0.00 0.00 0.00 57 1019.9
20260510130729 7 9 14.5 25.7 0.00 0.00 0.00 60 1019.8
20260510130229 7 0 14.5 25.7 0.00 0.00 0.00 62 1019.7
20260510125728 7 344 11.3 24.1 0.00 0.00 0.00 63 1019.7
20260510125229 7 313 9.7 20.9 0.00 0.00 0.00 67 1019.6
20260510124729 6 348 9.7 20.9 0.00 0.00 0.00 67 1019.5
20260510124229 6 339 8.0 17.7 0.00 0.00 0.00 67 1019.6
20260510123229 6 346 8.0 17.7 0.00 0.00 0.00 67 1019.5
20260510122730 6 348 6.4 14.5 0.00 0.00 0.00 67 1019.4
20260510122229 6 316 4.8 14.5 0.00 0.00 0.00 67 1019.4
20260510120726 6 334 4.8 9.7 0.00 0.00 0.00 66 1019.1
20260510120227 5 329 3.2 9.7 0.00 0.00 0.00 66 1018.9
20260510115726 5 330 1.6 8.0 0.00 0.00 0.00 67 1018.8
20260510115224 5 317 1.6 8.0 0.00 0.00 0.00 67 1018.7
20260510114721 5 306 1.6 8.0 0.00 0.00 0.00 66 1018.7
20260510114220 5 290 1.6 4.8 0.00 0.00 0.00 66 1018.7
20260510113718 5 298 1.6 4.8 0.00 0.00 0.00 67 1018.7
20260510113214 5 300 1.6 6.4 0.00 0.00 0.00 67 1018.6
20260510112714 5 308 3.2 6.4 0.00 0.00 0.00 67 1018.5
20260510111709 5 316 1.6 11.3 0.00 0.00 0.00 67 1018.5
20260510111208 5 309 1.6 6.4 0.00 0.00 0.00 66 1018.4
20260510110704 5 309 1.6 6.4 0.00 0.00 0.00 65 1018.4
20260510110206 5 275 0.0 3.2 0.00 0.00 0.00 66 1018.3
20260510105703 5 275 0.0 3.2 0.00 0.00 0.00 65 1018.2
20260510105202 5 275 0.0 3.2 0.00 0.00 0.00 64 1018.3
20260510104701 5 275 1.6 3.2 0.00 0.00 0.00 65 1018.1
20260510104202 5 276 1.6 3.2 0.00 0.00 0.00 65 1018.0
20260510103701 5 296 0.0 3.2 0.00 0.00 0.00 67 1017.9
20260510103202 5 304 0.0 1.6 0.00 0.00 0.00 68 1017.9
20260510102702 5 305 0.0 1.6 0.00 0.00 0.00 66 1017.7
20260510102155 5 305 0.0 3.2 0.00 0.00 0.00 64 1017.6
20260510101649 5 305 1.6 3.2 0.00 0.00 0.00 64 1017.5
20260510101143 5 306 1.6 3.2 0.00 0.00 0.00 63 1017.5
20260510100644 5 307 0.0 3.2 0.00 0.00 0.00 63 1017.5
20260510100142 5 307 0.0 3.2 0.00 0.00 0.00 63 1017.4
20260510095138 5 310 0.0 3.2 0.00 0.03 0.00 63 1017.2
20260510094636 5 311 0.0 3.2 0.00 0.03 0.00 64 1017.2
20260510093630 5 311 0.0 3.2 0.00 0.03 0.00 63 1017.1
20260510093130 5 317 0.0 3.2 0.00 0.03 0.00 65 1017.0
20260510092630 5 318 1.6 4.8 0.00 0.03 0.00 64 1017.0
20260510091630 5 319 1.6 4.8 0.00 0.03 0.00 65 1017.0
20260510091131 5 321 1.6 4.8 0.00 0.03 0.00 65 1016.9
20260510090631 5 317 1.6 4.8 0.00 0.03 0.00 65 1016.9
20260510090131 5 321 1.6 4.8 0.00 0.03 0.00 65 1016.7
20260510085631 5 320 1.6 4.8 0.00 0.03 0.00 65 1016.7
20260510085130 5 325 1.6 4.8 0.00 0.05 0.00 64 1016.6
20260510084631 5 325 1.6 4.8 0.00 0.08 0.00 64 1016.5
20260510084130 5 334 1.6 3.2 0.00 0.10 0.00 64 1016.5
20260510083630 5 335 1.6 3.2 0.00 0.13 0.00 65 1016.4
20260510082620 6 313 1.6 4.8 0.00 0.15 0.00 66 1016.3
20260510082116 6 307 3.2 4.8 0.00 0.18 0.00 64 1016.3
20260510081617 5 298 1.6 4.8 0.00 0.20 0.00 64 1016.2
20260510081116 6 296 3.2 6.4 0.00 0.23 0.00 63 1016.2
20260510080617 5 286 3.2 6.4 0.00 0.25 0.00 63 1016.1
20260510080118 5 293 1.6 4.8 0.00 0.30 0.00 63 1016.1
20260510075115 5 288 0.0 4.8 0.00 0.36 0.00 63 1015.9
20260510074613 5 285 0.0 4.8 0.00 0.38 0.00 63 1015.9
20260510073609 5 285 1.6 6.4 0.00 0.43 0.00 62 1015.9
20260510073106 5 284 1.6 6.4 0.00 0.46 0.00 62 1015.7
20260510072607 5 283 1.6 6.4 0.00 0.48 0.00 63 1015.7
20260510072102 5 283 1.6 6.4 0.00 0.48 0.00 64 1015.7
20260510071103 5 287 0.0 1.6 0.00 0.51 0.00 64 1015.3
20260510065603 5 288 0.0 3.2 0.00 0.51 0.00 65 1015.5
20260510064602 5 288 0.0 3.2 0.00 0.51 0.00 65 1015.4
20260510064055 5 290 0.0 1.6 0.00 0.51 0.00 66 1015.4
20260510063549 5 290 0.0 1.6 0.00 0.51 0.00 66 1015.3
20260510063043 5 290 0.0 1.6 0.00 0.51 0.00 65 1015.4
20260510062537 5 290 0.0 1.6 0.00 0.51 0.00 65 1015.4
20260510062031 5 290 0.0 1.6 0.00 0.51 0.00 65 1015.4
20260510061525 5 290 0.0 1.6 0.00 0.51 0.00 64 1015.4
20260510061019 5 290 0.0 3.2 0.00 0.51 0.00 61 1015.3
20260510060017 5 290 0.0 3.2 0.00 0.51 0.00 61 1015.4
20260510055516 5 290 0.0 1.6 0.00 0.51 0.00 62 1015.2
20260510055019 6 290 0.0 1.6 0.00 0.51 0.00 63 1015.3
20260510054517 6 290 0.0 3.2 0.00 0.51 0.00 63 1015.3
20260510054013 6 290 0.0 3.2 0.00 0.51 0.00 61 1015.2
20260510053510 6 291 0.0 3.2 0.00 0.51 0.00 60 1015.1
20260510053011 6 291 0.0 1.6 0.00 0.51 0.00 61 1015.1
20260510052510 6 291 0.0 0.0 0.00 0.51 0.00 62 1015.1
20260510052010 6 291 0.0 1.6 0.00 0.51 0.00 62 1015.1
20260510051507 6 291 0.0 1.6 0.00 0.51 0.00 62 1015.1
20260510051008 6 291 0.0 0.0 0.00 0.51 0.00 61 1015.1
20260510050507 6 291 0.0 1.6 0.00 0.51 0.00 60 1015.1
20260510050007 6 291 0.0 1.6 0.00 0.51 0.00 60 1015.1
20260510045505 6 291 0.0 0.0 0.00 0.51 0.51 61 1015.0
20260510045008 6 291 0.0 0.0 0.00 0.51 0.51 60 1015.0
20260510044506 6 291 0.0 1.6 0.00 0.51 0.51 60 1015.0
20260510044008 6 291 0.0 1.6 0.00 0.51 0.51 60 1015.0
20260510043507 6 291 0.0 0.0 0.00 0.51 0.51 59 1015.0
20260510043005 6 291 0.0 1.6 0.00 0.51 0.51 59 1014.9
20260510041504 7 291 0.0 1.6 0.00 0.51 0.51 57 1014.9
20260510041004 7 291 0.0 1.6 0.00 0.51 0.51 54 1014.9
20260510040505 7 291 0.0 3.2 0.00 0.51 0.51 54 1014.8
20260510040004 7 291 0.0 3.2 0.00 0.51 0.51 54 1014.8
20260510035505 8 292 0.0 0.0 0.00 0.51 0.51 56 1014.8
20260510035004 8 292 0.0 3.2 0.00 0.51 0.51 53 1014.8
20260510034504 8 292 0.0 3.2 0.00 0.51 0.51 50 1014.8
20260510034005 8 293 1.6 3.2 0.00 0.51 0.51 49 1014.8
20260510033504 8 293 1.6 3.2 0.00 0.51 0.51 51 1014.8
20260510031505 9 313 0.0 3.2 0.00 0.51 0.51 49 1014.7
20260510031004 9 318 1.6 4.8 0.00 0.51 0.51 49 1014.6
20260510030505 9 324 1.6 6.4 0.00 0.51 0.51 47 1014.5
20260510025503 10 305 3.2 8.0 0.00 0.51 0.51 44 1014.4
20260510024003 10 298 6.4 16.1 0.00 0.51 0.51 43 1014.3
20260510023501 10 338 6.4 14.5 0.00 0.51 0.51 43 1014.3
20260510023001 10 295 6.4 14.5 0.00 0.51 0.51 43 1014.2
20260510022003 10 355 8.0 17.7 0.00 0.51 0.51 42 1014.0
20260510021502 10 322 6.4 14.5 0.00 0.51 0.51 42 1013.9
20260510021002 10 325 8.0 17.7 0.00 0.51 0.51 42 1013.8
20260510020005 11 332 11.3 19.3 0.00 0.51 0.51 41 1013.6
20260510015501 11 319 11.3 20.9 0.00 0.51 0.51 40 1013.6
20260510015003 11 340 9.7 20.9 0.00 0.51 0.51 40 1013.5
20260510014501 11 355 12.9 24.1 0.00 0.51 0.51 39 1013.4
20260510013959 11 325 12.9 24.1 0.00 0.51 0.51 39 1013.2
20260510013455 11 347 12.9 25.7 0.00 0.51 0.51 39 1013.1
20260510012957 11 302 12.9 25.7 0.00 0.51 0.51 39 1013.1
20260510012456 11 319 14.5 29.0 0.00 0.51 0.51 39 1012.9
20260510011956 11 348 14.5 29.0 0.00 0.51 0.51 38 1012.8
20260510011502 11 331 12.9 22.5 0.00 0.51 0.51 38 1012.8
20260510010956 12 348 11.3 24.1 0.00 0.51 0.51 38 1012.5
20260510010449 12 345 9.7 24.1 0.00 0.51 0.51 38 1012.5
20260510005437 12 309 9.7 20.9 0.00 0.51 0.51 38 1012.4
20260510004937 12 318 11.3 22.5 0.00 0.51 0.51 38 1012.3
20260510004437 12 309 12.9 22.5 0.00 0.51 0.51 38 1012.3
20260510003435 12 329 14.5 27.4 0.00 0.51 0.51 36 1012.1
20260510002937 12 346 14.5 27.4 0.00 0.51 0.51 35 1012.0
20260510001937 12 18 16.1 32.2 0.00 0.51 0.51 36 1011.9
20260510001436 12 342 17.7 32.2 0.00 0.51 0.51 35 1011.8
20260510000934 12 323 14.5 27.4 0.00 0.51 0.51 35 1011.7
20260510000433 12 329 14.5 25.7 0.00 0.51 0.51 36 1011.6
20260509235934 12 302 14.5 25.7 0.00 0.51 0.51 35 1011.6
20260509234934 12 0 14.5 24.1 0.00 0.51 0.51 35 1011.5
20260509234432 12 301 14.5 27.4 0.00 0.51 0.51 35 1011.4
20260509233933 12 311 17.7 32.2 0.00 0.51 0.51 35 1011.4
20260509233432 12 333 19.3 32.2 0.00 0.51 0.51 35 1011.4
20260509232931 12 326 16.1 30.6 0.00 0.51 0.51 35 1011.2
20260509232424 12 294 14.5 32.2 0.00 0.51 0.51 36 1011.2
20260509231919 12 324 14.5 32.2 0.00 0.51 0.51 35 1011.2
20260509231412 12 296 14.5 29.0 0.00 0.51 0.51 36 1011.1
20260509230912 13 311 12.9 29.0 0.00 0.51 0.51 35 1011.2
20260509230410 13 322 14.5 27.4 0.00 0.51 0.51 35 1011.1
20260509225909 13 302 16.1 29.0 0.00 0.51 0.51 34 1011.1
20260509225409 13 301 16.1 30.6 0.00 0.51 0.51 34 1011.0
20260509224910 13 316 16.1 30.6 0.00 0.51 0.51 34 1011.1
20260509224409 13 311 14.5 25.7 0.00 0.51 0.51 34 1011.0
20260509223907 13 310 16.1 35.4 0.00 0.51 0.51 33 1010.8
20260509223407 13 313 20.9 38.6 0.00 0.51 0.51 33 1010.9
20260509222905 13 300 20.9 38.6 0.00 0.51 0.51 33 1010.9
20260509221402 13 305 20.9 35.4 0.00 0.51 0.51 34 1010.8